Regional Weather Roundup
Issued by NWS Jackson, KY

Home | Current Version | Previous Version | Text Only | Print | Product List | Glossary Off
Versions: 1 2 3 4 5 6 7 8 9 10 11 12 13 14 15 16 17 18 19 20 21 22 23 24 25 26 27 28 29 30 31 32 33 34 35 36 37 38 39 40 41 42 43 44 45 46 47 48 49 50

000
ASUS43 KJKL 231019
RWRJKL

EAST KENTUCKY HOURLY WEATHER ROUNDUP
NATIONAL WEATHER SERVICE JACKSON KY
600 AM EDT THU OCT 23 2014

NOTE: "FAIR" INDICATES FEW OR NO CLOUDS BELOW 12,000 FEET WITH
NO SIGNIFICANT WEATHER AND/OR OBSTRUCTIONS TO VISIBILITY.

* THESE REPORTS ARE NOT UNDER NWS QUALITY CONTROL AND MAY NOT
  REPORT WEATHER SUCH AS PRECIPITATION AND FOG.

KYZ079-080-083-085-087-088-110-112-115-119-120-231100
...EASTERN KENTUCKY...

CITY           SKY/WX    TMP DP  RH WIND       PRES   REMARKS
JACKSON        CLOUDY    46  39  76 CALM      30.22S
LONDON         CLOUDY    48  41  76 NE5       30.22S
SOMERSET*      CLOUDY    45  39  81 NE3       30.24R
MONTICELLO*    CLOUDY    44  43  97 CALM      30.24S
WILLIAMSBURG*  CLOUDY    46  43  87 CALM      30.22R
MIDDLESBORO*   CLOUDY    48  40  74 CALM      30.22R
HARLAN APT*    CLOUDY    45  37  76 CALM      30.21R
BLACK MTN*       N/A     34  34 100 N7          N/A  WCI  28
PIKEVILLE APT* CLOUDY    45  39  81 CALM      30.21R
BIG SANDY*     CLOUDY    46  41  81 CALM      30.21S
MOREHEAD APT*  PTSUNNY   46  37  71 CALM      30.26R
ASHLAND*       CLOUDY    48  37  66 CALM      30.20F
$$

KYZ035-036-041-042-044-050-067-078-099-231100
...CENTRAL KENTUCKY...

CITY           SKY/WX    TMP DP  RH WIND       PRES   REMARKS
MT STERLING*   CLOUDY    46  41  81 CALM      30.25S
FLEMING/MASON* CLEAR     45  39  81 CALM      30.25R
DANVILLE*      CLOUDY    45  37  76 CALM      30.25S
RICHMOND*      CLOUDY    46  39  76 CALM      30.23S
LEXINGTON      CLOUDY    49  39  68 NE6       30.24S
FRANKFORT      CLOUDY    47  38  71 CALM      30.24S
$$

KYZ091>093-OHZ055-061-077-WVZ005-015-034-035-042-231100
...SOUTHERN OHIO/WEST VIRGINIA...

CITY           SKY/WX    TMP DP  RH WIND       PRES   REMARKS
COVINGTON      CLEAR     45  39  79 NW7       30.24F
COLUMBUS       PTCLDY    41  39  93 N6        30.23S
DAYTON         PTCLDY    39  37  92 CALM      30.25F FOG
WILMINGTON     CLEAR     41  37  86 NW3       30.23S
HUNTINGTON     CLOUDY    47  42  83 N3        30.21S
CHARLESTON     CLOUDY    47  41  80 NW5       30.20S
PINEVILLE*     CLOUDY    46  46  99 MISG      30.23R
BECKLEY        CLOUDY    42  38  85 N10       30.15S
BLUEFIELD      CLOUDY    43  38  82 VRB5      30.15S
$$

VAZ002-007-008-TNZ017-027-036-066-071-231100
...SOUTHWEST VIRGINIA/EAST TENNESSEE...

CITY           SKY/WX    TMP DP  RH WIND       PRES   REMARKS
WISE*          CLOUDY    41  41 100 N6        30.20R
JONESVILLE*    CLOUDY    46  41  81 CALM      30.22R
ABINGDON*      CLOUDY    47  40  76 CALM      30.17S
BRISTOL        CLOUDY    48  40  73 N5        30.19R
KNOXVILLE      PTCLDY    42  38  85 NE6       30.19R
OAK RIDGE      CLOUDY    48  42  80 CALM      30.21S
CROSSVILLE     CLEAR     38  35  89 NE6       30.20R WCI  33
NASHVILLE      CLEAR     42  40  92 W3        30.24R
$$

...KEY TO REMARKS...
VSB - VISIBILITY IN MILES
WCI - WIND CHILL INDEX
HX  - HEAT INDEX

$$



USA.gov is the U.S. government's official web portal to all federal, state and local government web resources and services.